| time (UTC) | temp F | wind direction | speed knots | gust knots | rain 1hr in | rain 24hr in | rain mn in | humidity % | barometer mb |
| 20260504044532 | 51 | 243 | 1.7 | 5.2 | 0.00 | 0.00 | 0.00 | 55 | 1009.8 |
| 20260504043030 | 51 | 155 | 0.0 | 5.2 | 0.00 | 0.00 | 0.00 | 55 | 1009.8 |
| 20260504041526 | 51 | 240 | 0.9 | 3.5 | 0.00 | 0.00 | 0.00 | 56 | 1009.8 |
| 20260504040024 | 52 | 176 | 0.9 | 5.2 | 0.00 | 0.00 | 0.00 | 55 | 1009.8 |
| 20260504034524 | 52 | 173 | 0.9 | 4.3 | 0.00 | 0.00 | 0.00 | 55 | 1009.9 |
| 20260504033022 | 52 | 219 | 0.9 | 3.5 | 0.00 | 0.00 | 0.00 | 56 | 1010.0 |
| 20260504031522 | 52 | 226 | 0.0 | 2.6 | 0.00 | 0.00 | 0.00 | 56 | 1010.1 |
| 20260504030021 | 52 | 264 | 2.6 | 5.2 | 0.00 | 0.00 | 0.00 | 55 | 1010.2 |
| 20260504024521 | 52 | 276 | 1.7 | 4.3 | 0.00 | 0.00 | 0.00 | 56 | 1010.2 |
| 20260504023021 | 51 | 266 | 0.9 | 4.3 | 0.00 | 0.00 | 0.00 | 57 | 1010.3 |
| 20260504021519 | 51 | 270 | 3.5 | 7.0 | 0.00 | 0.00 | 0.00 | 58 | 1010.6 |
| 20260504020023 | 50 | 338 | 1.7 | 5.2 | 0.00 | 0.00 | 0.00 | 61 | 1010.9 |
| 20260504014537 | 51 | 310 | 1.7 | 14.8 | 0.00 | 0.00 | 0.00 | 63 | 1010.9 |
| 20260504013018 | 53 | 349 | 2.6 | 6.1 | 0.00 | 0.00 | 0.00 | 52 | 1011.1 |
| 20260504011517 | 53 | 321 | 2.6 | 12.2 | 0.00 | 0.00 | 0.00 | 50 | 1010.7 |
| 20260504010016 | 53 | 335 | 2.6 | 10.4 | 0.00 | 0.00 | 0.00 | 49 | 1010.4 |
| 20260504004517 | 54 | 281 | 3.5 | 13.0 | 0.00 | 0.00 | 0.00 | 48 | 1010.7 |
| 20260504003015 | 54 | 282 | 7.0 | 18.2 | 0.00 | 0.00 | 0.00 | 46 | 1010.3 |
| 20260504001516 | 54 | 255 | 0.9 | 9.6 | 0.00 | 0.00 | 0.00 | 46 | 1010.1 |
| 20260504000032 | 54 | 283 | 2.6 | 10.4 | 0.00 | 0.00 | 0.00 | 45 | 1009.8 |
| 20260503234512 | 54 | 259 | 1.7 | 12.2 | 0.00 | 0.00 | 0.00 | 44 | 1009.7 |
| 20260503233011 | 54 | 231 | 1.7 | 13.9 | 0.00 | 0.00 | 0.00 | 44 | 1009.9 |
| 20260503231511 | 54 | 349 | 3.5 | 7.0 | 0.00 | 0.00 | 0.00 | 46 | 1010.2 |
| 20260503230009 | 54 | 307 | 1.7 | 7.0 | 0.00 | 0.00 | 0.00 | 46 | 1010.3 |
| 20260503224509 | 54 | 193 | 0.9 | 4.3 | 0.00 | 0.00 | 0.00 | 46 | 1010.1 |
| 20260503223008 | 54 | 269 | 0.9 | 5.2 | 0.00 | 0.00 | 0.00 | 45 | 1010.0 |
| 20260503221508 | 55 | 259 | 2.6 | 7.0 | 0.00 | 0.00 | 0.00 | 43 | 1009.9 |
| 20260503220007 | 55 | 276 | 4.3 | 9.6 | 0.00 | 0.00 | 0.00 | 41 | 1009.9 |
| 20260503214521 | 55 | 330 | 2.6 | 11.3 | 0.00 | 0.00 | 0.00 | 42 | 1010.0 |
| 20260503213002 | 55 | 333 | 0.9 | 4.3 | 0.00 | 0.00 | 0.00 | 43 | 1010.1 |
| 20260503211600 | 54 | 216 | 4.3 | 9.6 | 0.00 | 0.00 | 0.00 | 43 | 1010.2 |
| 20260503210100 | 54 | 293 | 3.5 | 7.0 | 0.00 | 0.00 | 0.00 | 42 | 1010.2 |
| 20260503204608 | 54 | 280 | 1.7 | 11.3 | 0.00 | 0.00 | 0.00 | 43 | 1010.3 |
| 20260503203101 | 53 | 339 | 2.6 | 13.0 | 0.00 | 0.00 | 0.00 | 43 | 1010.6 |
| 20260503201555 | 53 | 264 | 2.6 | 8.7 | 0.00 | 0.00 | 0.00 | 45 | 1010.8 |
| 20260503200052 | 53 | 302 | 2.6 | 9.6 | 0.00 | 0.00 | 0.00 | 46 | 1010.9 |
| 20260503194606 | 53 | 328 | 3.5 | 9.6 | 0.00 | 0.00 | 0.00 | 47 | 1011.0 |
| 20260503193047 | 53 | 311 | 2.6 | 10.4 | 0.00 | 0.00 | 0.00 | 45 | 1011.2 |
| 20260503191546 | 52 | 309 | 2.6 | 10.4 | 0.00 | 0.00 | 0.00 | 47 | 1011.3 |
| 20260503190056 | 53 | 329 | 0.9 | 10.4 | 0.00 | 0.00 | 0.00 | 44 | 1011.4 |
| 20260503184543 | 53 | 345 | 3.5 | 9.6 | 0.00 | 0.00 | 0.00 | 43 | 1011.3 |
| 20260503183045 | 51 | 307 | 2.6 | 9.6 | 0.00 | 0.00 | 0.00 | 44 | 1011.5 |
| 20260503181539 | 52 | 263 | 2.6 | 7.8 | 0.00 | 0.00 | 0.00 | 43 | 1011.9 |
| 20260503180038 | 52 | 287 | 3.5 | 8.7 | 0.00 | 0.00 | 0.00 | 43 | 1011.9 |
| 20260503174535 | 52 | 266 | 3.5 | 8.7 | 0.00 | 0.00 | 0.00 | 43 | 1012.1 |
| 20260503173051 | 51 | 228 | 2.6 | 8.7 | 0.00 | 0.00 | 0.00 | 43 | 1012.4 |
| 20260503171529 | 50 | 352 | 2.6 | 8.7 | 0.00 | 0.00 | 0.00 | 44 | 1012.5 |
| 20260503081506 | 37 | 283 | 0.0 | 1.7 | 0.00 | 0.00 | 0.00 | 81 | 1013.9 |